Location: Rounton
(54.4000°N, 1.3500°W)
Time: 18:54:59
(UTC+00:00)

Altair - Pass Details

Date: 07 December 2021
Orbit: 1501 x 1683 km, 47.2° (Epoch: 16 January)

Event Time Altitude Azimuth Distance (km) Brightness Sun altitude
Rises 18:09:44 0° 266° (W) 4,738 11.6 -20.1°
Reaches altitude 10° 18:12:54 10° 262° (W) 3,731 10.7 -20.5°
Maximum altitude 18:21:55 55° 188° (S) 1,777 7.9 -21.8°
Enters shadow 18:27:35 24° 122° (ESE) 2,712 8.4 -22.6°
Drops below altitude 10° 18:30:45 10° 114° (ESE) 3,652 - -23.1°
Sets 18:33:49 0° 111° (ESE) 4,631 - -23.5°
